This demonstration page uses our WeatherBlox Daily Observations layout. Learn more.

Left ArrowRight Arrow

39.29038, -76.61219

Hourly Observations for February 5, 2017

Temp ( °F °C ) Dew Point ( °F °C ) Humidity (%) Winds ( mph kmh ) Pressure ( in mb ) Visibility ( mi km ) Precip ( " mm )
12:54 am 00:54 undefined 33 0.6 8 -13.3 35 35 undefined N/A 30.25 1024 N/A 0.00 0.00
1:54 am 01:54 undefined 32 0 10 -12.2 40 40 undefined N/A 30.22 1023 N/A 0.00 0.00
2:54 am 02:54 undefined 32 0 10 -12.2 40 40 undefined N/A 30.19 1022 N/A 0.00 0.00
3:54 am 03:54 undefined 31 -0.6 11 -11.7 43 43 undefined N/A 30.16 1021 N/A 0.00 0.00
4:54 am 04:54 undefined 31 -0.6 11 -11.7 43 43 undefined N/A 30.14 1021 N/A 0.00 0.00
5:54 am 05:54 undefined 32 0 12 -11.1 43 43 undefined N/A 30.11 1020 N/A 0.00 0.00
6:54 am 06:54 undefined 33 0.6 12 -11.1 42 42 undefined N/A 30.10 1019 N/A 0.00 0.00
7:54 am 07:54 undefined 34 1.1 13 -10.6 42 42 undefined N/A 30.09 1019 N/A 0.00 0.00
8:54 am 08:54 undefined 36 2.2 14 -10 40 40 undefined N/A 30.06 1018 N/A 0.00 0.00
9:54 am 09:54 undefined 38 3.3 13 -10.6 36 36 undefined N/A 30.04 1017 N/A 0.00 0.00
10:54 am 10:54 undefined 41 5 13 -10.6 32 32 undefined N/A 30.01 1016 N/A 0.00 0.00
11:54 am 11:54 undefined 44 6.7 13 -10.6 28 28 undefined N/A 29.98 1015 N/A 0.00 0.00
12:54 pm 12:54 undefined 45 7.2 13 -10.6 27 27 undefined N/A 29.95 1014 N/A 0.00 0.00
1:54 pm 13:54 undefined 47 8.3 14 -10 26 26 undefined N/A 29.91 1013 N/A 0.00 0.00
2:54 pm 14:54 undefined 49 9.4 16 -8.9 27 27 undefined N/A 29.90 1012 N/A 0.00 0.00
3:54 pm 15:54 undefined 50 10 21 -6.1 32 32 undefined N/A 29.91 1013 N/A 0.00 0.00
4:54 pm 16:54 undefined 50 10 21 -6.1 32 32 undefined N/A 29.91 1013 N/A 0.00 0.00
5:54 pm 17:54 undefined 48 8.9 22 -5.6 36 36 undefined N/A 29.95 1014 N/A 0.00 0.00
6:54 pm 18:54 undefined 47 8.3 23 -5 39 39 undefined N/A 29.96 1015 N/A 0.00 0.00
7:54 pm 19:54 undefined 44 6.7 23 -5 43 43 undefined N/A 29.97 1015 N/A 0.00 0.00
8:54 pm 20:54 undefined 43 6.1 24 -4.4 47 47 undefined N/A 29.97 1015 N/A 0.00 0.00
9:54 pm 21:54 undefined 42 5.6 25 -3.9 51 51 undefined N/A 29.98 1015 N/A 0.00 0.00
10:54 pm 22:54 undefined 41 5 26 -3.3 55 55 undefined N/A 30.00 1016 N/A 0.00 0.00
11:54 pm 23:54 undefined 41 5 26 -3.3 55 55 undefined N/A 30.02 1017 N/A 0.00 0.00

Powered by AerisWeather